Weather History for Ardmore, OK

Change the Weather History Date:

Thursday, October 24, 2013

  Actual Average Record
Temperature  
Mean Temperature 58 °F -  
Max Temperature 69 °F 70 °F 91 °F (2003)
Min Temperature 48 °F 52 °F 35 °F (2005)
Degree Days  
Heating Degree Days 6    
Growing Degree Days 8 (Base 50)    
Moisture  
Dew Point 46 °F    
Average Humidity 75    
Maximum Humidity 99    
Minimum Humidity 38    
Precipitation  
Precipitation 0.00 in - - ()
Sea Level Pressure  
Sea Level Pressure 30.16 in    
Wind  
Wind Speed 4 mph (NNE)    
Max Wind Speed 16 mph    
Max Gust Speed 21 mph    
Visibility 10 miles    
Events      
Averages and records for this station are not official NWS values.
T = Trace of Precipitation, MM = Missing Value Source: NWS Daily Summary

Daily Weather History Graph

Daily Weather History Graph

Search for Another Location

Airport:

Trip Planner

Search our weather history database for the weather conditions in past years. The results will help you decide how hot, cold, wet, or windy it might be!

Date:

Astronomy

Oct. 24, 2013 Rise Set
Actual Time 7:41 AM CDT 6:42 PM CDT
Civil Twilight 7:15 AM CDT 7:08 PM CDT
Nautical Twilight 6:46 AM CDT 7:37 PM CDT
Astronomical Twilight 6:16 AM CDT 8:06 PM CDT
Moon 11:13 PM CDT (10/24) 12:37 PM CDT (10/24)
Length of Visible Light 11h 52m
Length of Day
11h 01m
Waning Gibbous, 71% of the Moon is Illuminated
Oct 24
Waning Gibbous
Oct 26
Last Quarter
Nov 3
New
Nov 9
First Quarter
Nov 17
Full

Hourly Weather History & Observations

Time (CDT) Temp. Dew Point Humidity Pressure Visibility Wind Dir Wind Speed Gust Speed Precip Events Conditions
12:15 AM 50.7 °F 49.1 °F 94% 30.03 in 10.0 mi Calm Calm - N/A   Clear
12:35 AM 50.4 °F 48.6 °F 94% 30.03 in 10.0 mi Calm Calm - N/A   Clear
12:55 AM 49.1 °F 48.7 °F 99% 30.04 in 10.0 mi NE 3.5 mph - N/A   Clear
1:15 AM 49.8 °F 48.6 °F 95% 30.05 in 10.0 mi NNE 3.5 mph - N/A   Clear
1:35 AM 51.8 °F 48.2 °F 88% 30.06 in 10.0 mi NNW 8.1 mph - N/A   Clear
1:55 AM 55.8 °F 49.1 °F 78% 30.07 in 10.0 mi North 6.9 mph - N/A   Clear
2:15 AM 54.5 °F 48.6 °F 80% 30.07 in 10.0 mi Calm Calm - N/A   Clear
2:35 AM 53.4 °F 47.7 °F 81% 30.08 in 10.0 mi Calm Calm - N/A   Clear
2:55 AM 50.5 °F 48.0 °F 91% 30.07 in 10.0 mi South 3.5 mph - N/A   Clear
3:15 AM 48.6 °F 46.4 °F 92% 30.08 in 10.0 mi Calm Calm - N/A   Clear
3:35 AM 50.2 °F 47.5 °F 90% 30.09 in 10.0 mi NW 3.5 mph - N/A   Clear
3:55 AM 48.7 °F 46.9 °F 93% 30.09 in 10.0 mi NNW 3.5 mph - N/A   Clear
4:15 AM 51.8 °F 47.3 °F 85% 30.09 in 10.0 mi Calm Calm - N/A   Clear
4:35 AM 50.4 °F 47.1 °F 89% 30.10 in 10.0 mi NNW 3.5 mph - N/A   Clear
4:55 AM 51.3 °F 48.2 °F 89% 30.10 in 10.0 mi Calm Calm - N/A   Clear
5:15 AM 51.4 °F 47.7 °F 87% 30.11 in 10.0 mi Calm Calm - N/A   Clear
5:35 AM 50.0 °F 47.7 °F 92% 30.11 in 10.0 mi North 3.5 mph - N/A   Clear
5:55 AM 50.0 °F 48.2 °F 94% 30.12 in 10.0 mi NNE 5.8 mph - N/A   Clear
6:15 AM 52.0 °F 49.3 °F 90% 30.13 in 10.0 mi NNE 5.8 mph - N/A   Clear
6:35 AM 50.9 °F 48.9 °F 93% 30.13 in 10.0 mi North 5.8 mph - N/A   Clear
6:55 AM 51.8 °F 48.2 °F 88% 30.14 in 10.0 mi NNE 6.9 mph - N/A   Clear
10:55 AM 62.6 °F 46.4 °F 55% 30.27 in 10.0 mi NNE 15.0 mph 20.7 mph N/A   Clear
11:55 AM 64.4 °F 44.6 °F 49% 30.29 in 10.0 mi ENE 16.1 mph - N/A   Clear
1:55 PM 68.0 °F 42.8 °F 40% 30.27 in 10.0 mi NE 10.4 mph 18.4 mph N/A   Clear
2:55 PM 69.8 °F 42.8 °F 38% 30.25 in 10.0 mi NE 10.4 mph - N/A   Clear
3:55 PM 68.0 °F 42.8 °F 40% 30.25 in 10.0 mi NE 10.4 mph - N/A   Clear
4:55 PM 66.2 °F 42.8 °F 43% 30.25 in 10.0 mi NE 9.2 mph - N/A   Clear
5:55 PM 64.4 °F 42.8 °F 45% 30.26 in 10.0 mi NE 11.5 mph - N/A   Clear
6:55 PM 59.0 °F 41.0 °F 51% 30.27 in 10.0 mi NE 8.1 mph - N/A   Clear
7:55 PM 55.4 °F 41.0 °F 58% 30.30 in 10.0 mi NE 6.9 mph - N/A   Clear
8:55 PM 53.6 °F 41.0 °F 62% 30.31 in 7.0 mi NNE 8.1 mph - N/A   Haze
9:55 PM 51.8 °F 39.2 °F 62% 30.32 in 10.0 mi NNE 11.5 mph - N/A   Clear
11:35 PM 50.4 °F 37.4 °F 61% 30.34 in 10.0 mi NE 8.1 mph - N/A   Clear
11:55 PM 50.0 °F 37.6 °F 62% 30.34 in 10.0 mi ENE 5.8 mph - N/A   Clear